Regional Weather Roundup
Issued by NWS

Home | Current Version | Previous Version | Graphics & Text | Print | Product List | Glossary On
Versions: 1 2 3 4 5 6 7 8 9 10 11 12 13 14 15 16 17 18 19 20 21 22 23 24 25 26 27 28 29 30 31 32 33 34 35 36 37 38 39 40 41 42 43 44 45 46 47 48 49 50
000
ASUS43 KMPX 300810
RWRMN
WEATHER ROUNDUP FOR MINNESOTA
NATIONAL WEATHER SERVICE TWIN CITIES/CHANHASSEN MN
300 AM CDT MON MAY 30 2016


NOTE: "FAIR" INDICATES FEW OR NO CLOUDS BELOW 12,000 FEET WITH NO
SIGNIFICANT WEATHER AND/OR OBSTRUCTIONS TO VISIBILITY. N/A MEANS
CURRENT SKY AND/OR WEATHER CONDITIONS ARE NOT AVAILABLE.

MNZ060>063-068>070-300900-
   Twin Cities Metro

CITY           SKY/WX    TMP DP  RH WIND       PRES   REMARKS
TWIN CITIES    CLEAR     63  57  81 CALM      29.99S
ST PAUL        PTCLDY    57  56  96 CALM      30.00R FOG
CRYSTAL        CLEAR     56  53  90 CALM      29.98S FOG
BLAINE         PTCLDY    55  55 100 CALM      29.99S FOG
EDEN PRAIRIE   CLEAR     61  58  90 CALM      29.99R FOG
SOUTH ST PAUL  PTCLDY    60  57  91 CALM      29.99S
LAKE ELMO      MOCLDY    54  54 100 CALM      30.01R FOG
$$
MNZ001>005-007-008-013>017-022>024-027-028-300900-
   Northwest Minnesota

CITY           SKY/WX    TMP DP  RH WIND       PRES   REMARKS
BEMIDJI        FOG       47  46  98 CALM      29.96S VSB 1/2
HALLOCK        CLEAR     54  52  94 S3        29.90F
ROSEAU         CLEAR     52  46  82 CALM      29.93R
WARROAD        CLEAR     50  46  87 SW3       29.93S
THIEF RVR FALL CLEAR     54  46  76 S7        29.95S
CROOKSTON      CLEAR     54  50  87 CALM      29.93F
FOSSTON        CLEAR     50  48  93 S5        29.96S
DETROIT LAKES  PTCLDY    55  52  88 S3        29.98F
MOORHEAD       CLOUDY    59  48  67 SE5       29.95S
PARK RAPIDS    CLEAR     53  48  83 CALM      29.96F
MAHNOMEN       FAIR      53  47  78 S5        29.95F
$$
MNZ006-009>011-018-025>026-300900-
   North Central Minnesota

CITY           SKY/WX    TMP DP  RH WIND       PRES   REMARKS
BAUDETTE       CLEAR     47  45  93 SW3       29.92R
FLAG ISLAND    CLEAR     55  54  94 CALM      29.91R
INTL FALLS     CLEAR     46  45  96 W5        29.91R
WASKISH        CLEAR     48  48 100 CALM      29.94S FOG
BIG FORK       FOG       46  46 100 CALM      29.95R VSB 1
LONGVILLE      CLOUDY    46  46 100 CALM      29.96F FOG
GRAND RAPIDS   CLEAR     57  51  80 S5        29.97S
CRANE LAKE     CLEAR     43  43 100 CALM      29.93R
ORR            CLEAR     48  46  93 CALM      29.91R
COOK           CLEAR     48  48 100 CALM      29.94R
WALKER         FAIR      51  50  95 SW3       29.96S
$$
MNZ012-019>021-037-300900-
   Northeast Minnesota

CITY           SKY/WX    TMP DP  RH WIND       PRES   REMARKS
DULUTH         CLEAR     51  48  89 W9        29.95S
ELY            CLEAR     52  52 100 SW3       29.92S
HIBBING        CLEAR     42  41  96 CALM      29.95R FOG
EVELETH        CLEAR     50  50 100 CALM      29.96R
DULUTH HARBOR  CLEAR     55  54  94 SW6       29.95R
TWO HARBORS    CLEAR     55  52  88 CALM      29.92S
SILVER BAY     PTCLDY    54  52  94 CALM      29.91R
GRAND MARAIS     N/A     46  43  89 W5        29.88R
G MARAIS ARPRT CLEAR     50  46  87 SW3       29.90R
$$
MNZ029>031-032-039>041-046>048-054>057-064-300900-
   West Central Minnesota

CITY           SKY/WX    TMP DP  RH WIND       PRES   REMARKS
FERGUS FALLS   MOCLDY    57  48  72 SE3       29.94S
WHEATON        CLEAR     55  48  76 CALM      29.97S
MORRIS         CLEAR     55  46  71 CALM      29.96F
ALEXANDRIA     CLEAR     55  50  83 S3        29.99S
ELBOW LAKE     FAIR      55  49  78 S6        29.97F
WADENA         CLEAR     48  46  93 CALM      29.97F
GLENWOOD       CLEAR     57  52  82 S3        29.99S
APPLETON       PTCLDY    54  48  82 CALM      29.97S
ORTONVILLE     PTCLDY    55  48  76 CALM      29.96F
MADISON        CLEAR     57  50  77 S3        29.98R
WILLMAR        FAIR      57  52  82 CALM      30.00S
$$
MNZ033>034-036-042>043-049>051-058-059-300900-
   Central Minnesota

CITY           SKY/WX    TMP DP  RH WIND       PRES   REMARKS
ST CLOUD       CLEAR     51  51 100 CALM      29.98S FOG
SAUK CENTRE    FAIR      51  49  94 CALM      29.99S
PAYNESVILLE    PTCLDY    51  51 100 CALM      29.99S
AITKIN           N/A     48  45  87 CALM      29.96S FOG
PINE RIVER     CLEAR     48  48 100 CALM      30.01S
BRAINERD       CLEAR     50  49  96 SW5       29.98S
STAPLES        CLEAR     48  46  93 CALM      29.98S
LONG PRAIRIE   FAIR      52  50  93 CALM      29.99F
LITTLE FALLS   FOG       50  48  93 CALM      29.98S VSB 1/2
LITCHFIELD     CLEAR     57  54  88 CALM      30.00S
BUFFALO        CLEAR     56  53  92 CALM      30.00S
MAPLE LAKE     CLEAR     54  54  98 CALM      30.00S FOG
HUTCHINSON     FOG       57  57 100 CALM      30.00S VSB 1/2
$$
MNZ037-044-045-052-053-300900-
   East Central Minnesota

CITY           SKY/WX    TMP DP  RH WIND       PRES   REMARKS
PRINCETON      CLEAR     52  52 100 CALM      29.98F
MORA           FOG       50  50 100 CALM      30.00R VSB 1/2
CAMBRIDGE      CLEAR     55  48  76 CALM      29.97S
RUSH CITY      MOCLDY    50  49  97 CALM      29.98S FOG
MOOSE LAKE     PTCLDY    48  46  93 SW3       29.96S FOG
HINCKLEY       FAIR      48  48 100 CALM      29.98S
CLOQUET        CLEAR     55  48  76 W7        29.96S
MCGREGOR       PTCLDY    50  48  93 CALM      29.98S
$$
MNZ071>073-080-081-089-090-097-098-300900-
   Southwest Minnesota

CITY           SKY/WX    TMP DP  RH WIND       PRES   REMARKS
MONTEVIDEO     CLEAR     55  48  76 CALM      30.00S
GRANITE FALLS  CLEAR     57  51  80 SE5       30.00S
CANBY          CLEAR     63  52  66 SW6       30.00R
MARSHALL       CLEAR     58  52  80 S3        30.00R
REDWOOD FALLS  CLEAR     57  49  74 S6        29.99S
OLIVIA         CLEAR     54  45  71 CALM      29.98F
PIPESTONE      CLOUDY    61  52  72 E5        30.00F
WINDOM         CLEAR     54  52  94 CALM      30.02S
WORTHINGTON    CLOUDY    58  54  86 SE5       30.01F
JACKSON        CLOUDY    59  50  72 CALM      30.02F
TRACY          CLEAR     62  53  72 SW6       30.01R
SLAYTON        CLOUDY    58  52  80 CALM      30.01F
$$
MNZ065>067-074>077-082>085-091>093-300900-
   South Central Minnesota

CITY           SKY/WX    TMP DP  RH WIND       PRES   REMARKS
MANKATO        CLEAR     63  55  77 S3        30.01S
NEW ULM        PTCLDY    57  54  88 S8        30.00S
ST JAMES       CLEAR     54  48  82 CALM      30.02S
FAIRMONT       CLEAR     57  52  82 CALM      30.01F
GLENCOE        CLEAR     59  59 100 CALM      30.00R
FARIBAULT        N/A     55  55 100 CALM      30.01F VSB 1/2
OWATONNA       CLEAR     57  55  94 CALM      30.02R
WASECA         CLEAR     55  54  94 CALM      30.03S
ALBERT LEA     CLEAR     55  55 100 CALM      30.03R
$$
MNZ078>079-086>088-094>096-300900-
   Southeast Minnesota

CITY           SKY/WX    TMP DP  RH WIND       PRES   REMARKS
ROCHESTER      CLEAR     60  55  83 W7        30.02S
RED WING       CLEAR     55  55 100 CALM      29.98F
STANTON        CLEAR     55  53  93 CALM      29.99S
DODGE CENTER   PTCLDY    55  54  94 SW6       30.03R
WINONA         CLEAR     59  57  94 CALM      30.00R
AUSTIN         CLEAR     55  54  94 CALM      30.02S
PRESTON        CLEAR     61  55  81 W6        30.02S
$$
ABBREVIATIONS USED IN REMARKS
   TC - TEMPERATURES IN CELSIUS
  WCI - WIND CHILL INDEX
   HX - HEAT INDEX
  VSB - VISIBILITY
$$



USA.gov is the U.S. government's official web portal to all federal, state and local government web resources and services.